Ottumwa, IA

11:30 AM CDT on April 27, 2017 (GMT -0500)
Ottumwa Industrial

Weather History for KOTM - May, 2014

Change the Weather History Date:

Sunday, May 11, 2014

  Actual Average Record
Temperature  
Mean Temperature 67 °F 60 °F  
Max Temperature 75 °F 71 °F 91 °F (1926)
Min Temperature 59 °F 49 °F 34 °F (1981)
Degree Days  
Heating Degree Days 0 6  
Month to date heating degree days 63 84  
Since 1 July heating degree days 7001 6214  
Cooling Degree Days 2 1  
Month to date cooling degree days 18 11  
Year to date cooling degree days 26 22  
Growing Degree Days 16 (Base 50)    
Moisture  
Dew Point 61 °F    
Average Humidity 79    
Maximum Humidity 90    
Minimum Humidity 68    
Precipitation  
Precipitation 2.12 in 0.15 in 2.13 in (2002)
Month to date precipitation 2.18 1.59  
Year to date precipitation 8.82 9.41  
Sea Level Pressure  
Sea Level Pressure 29.81 in    
Wind  
Wind Speed 13 mph (ESE)    
Max Wind Speed 43 mph    
Max Gust Speed 55 mph    
Visibility 7 miles    
Events Fog , Rain , Thunderstorm    
T = Trace of Precipitation, MM = Missing Value Source: NWS Daily Summary

Daily Weather History Graph

Daily Weather History Graph

Search for Another Location

Airport or City:

Trip Planner

Search our weather history database for the weather conditions in past years. The results will help you decide how hot, cold, wet, or windy it might be!

Date:

Astronomy

May. 11, 2014 Rise Set
Actual Time 5:55 AM CDT 8:17 PM CDT
Civil Twilight 5:24 AM CDT 8:48 PM CDT
Nautical Twilight 4:46 AM CDT 9:26 PM CDT
Astronomical Twilight 4:04 AM CDT 10:09 PM CDT
Moon 5:11 PM CDT (5/11) 4:03 AM CDT (5/11)
Length of Visible Light 15h 23m
Length of Day
14h 21m
Waxing Gibbous, 89% of the Moon is Illuminated
May 11
Waxing Gibbous
May 14
Full
May 21
Last Quarter
May 28
New
Jun 5
First Quarter

Hourly Weather History & Observations

Time (CDT) Temp. Dew Point Humidity Pressure Visibility Wind Dir Wind Speed Gust Speed Precip Events Conditions
12:53 AM 62.6 °F 53.6 °F 72% 29.82 in 10.0 mi South 12.7 mph - N/A   Clear
1:53 AM 61.0 °F 54.0 °F 78% 29.81 in 10.0 mi South 13.8 mph - N/A   Clear
2:53 AM 60.1 °F 55.0 °F 83% 29.81 in 10.0 mi South 10.4 mph - N/A   Clear
3:53 AM 60.1 °F 55.9 °F 86% 29.82 in 10.0 mi South 11.5 mph - N/A   Clear
4:53 AM 60.1 °F 55.9 °F 86% 29.81 in 10.0 mi South 10.4 mph - N/A   Clear
5:53 AM 61.0 °F 57.0 °F 87% 29.80 in 10.0 mi South 13.8 mph - N/A   Clear
6:53 AM 62.1 °F 57.0 °F 84% 29.82 in 10.0 mi South 11.5 mph - N/A   Clear
7:53 AM 64.9 °F 57.9 °F 78% 29.83 in 10.0 mi South 15.0 mph - N/A   Partly Cloudy
8:53 AM 68.0 °F 60.1 °F 76% 29.83 in 10.0 mi South 12.7 mph - N/A   Clear
9:53 AM 73.9 °F 63.0 °F 68% 29.83 in 10.0 mi South 19.6 mph 24.2 mph N/A   Clear
10:53 AM 73.9 °F 64.0 °F 71% 29.81 in 10.0 mi South 11.5 mph - N/A   Clear
11:53 AM 73.9 °F 64.9 °F 73% 29.82 in 10.0 mi SSE 6.9 mph - N/A   Clear
12:53 PM 72.0 °F 64.9 °F 78% 29.85 in 10.0 mi Calm Calm - N/A   Scattered Clouds
1:44 PM 71.1 °F 64.9 °F 81% 29.81 in 10.0 mi NNE 17.3 mph - 0.00 in Rain , Thunderstorm Light Rain
1:53 PM 70.0 °F 64.9 °F 84% 29.83 in 10.0 mi NE 9.2 mph - 0.00 in Rain , Thunderstorm Light Thunderstorms and Rain
2:07 PM 68.0 °F 64.9 °F 90% 29.80 in 8.0 mi NNE 20.7 mph 27.6 mph 0.00 in Rain , Thunderstorm Light Thunderstorms and Rain
2:27 PM 66.0 °F 64.0 °F 93% 29.87 in 2.5 mi NW 31.1 mph 43.7 mph 0.13 in Rain , Thunderstorm Heavy Thunderstorms and Rain
2:33 PM 62.1 °F 59.0 °F 90% 29.92 in 0.8 mi West 42.6 mph 55.2 mph 0.39 in Rain , Thunderstorm Heavy Thunderstorms and Rain
2:35 PM 60.1 °F 57.9 °F 93% 29.95 in 0.5 mi West 27.6 mph 55.2 mph 0.60 in Fog , Rain , Thunderstorm Heavy Thunderstorms and Rain
2:43 PM 59.0 °F 57.0 °F 93% 29.84 in 0.2 mi NNE 34.5 mph 48.3 mph 1.42 in Fog , Rain , Thunderstorm Heavy Thunderstorms and Rain
2:46 PM 59.0 °F 57.0 °F 93% 29.83 in 0.5 mi NNE 21.9 mph 48.3 mph 1.48 in Fog , Rain , Thunderstorm Heavy Thunderstorms and Rain
2:53 PM 62.1 °F 59.0 °F 90% 29.82 in 1.8 mi NE 27.6 mph 44.9 mph 1.49 in Rain , Thunderstorm Thunderstorms and Rain
2:55 PM 62.1 °F 59.0 °F 90% 29.84 in 3.0 mi North 27.6 mph 44.9 mph 0.00 in Rain , Thunderstorm Light Thunderstorms and Rain
3:05 PM 61.0 °F 59.0 °F 93% 29.86 in 3.0 mi North 19.6 mph 27.6 mph 0.08 in Rain , Thunderstorm Thunderstorms and Rain
3:08 PM 62.1 °F 59.0 °F 90% 29.85 in 1.8 mi NE 12.7 mph 25.3 mph 0.19 in Rain , Thunderstorm Heavy Thunderstorms and Rain
3:23 PM 63.0 °F 61.0 °F 93% 29.81 in 2.5 mi NE 18.4 mph 27.6 mph 0.35 in Rain , Thunderstorm Thunderstorms and Rain
3:26 PM 63.0 °F 61.0 °F 93% 29.81 in 4.0 mi NNE 16.1 mph 27.6 mph 0.35 in Rain , Thunderstorm Light Thunderstorms and Rain
3:36 PM 64.0 °F 61.0 °F 90% 29.80 in 10.0 mi ENE 15.0 mph 25.3 mph 0.35 in Rain , Thunderstorm Light Rain
3:43 PM 64.9 °F 61.0 °F 87% 29.81 in 10.0 mi ENE 15.0 mph - 0.35 in Thunderstorm Mostly Cloudy
3:53 PM 64.0 °F 61.0 °F 90% 29.81 in 10.0 mi ENE 13.8 mph - 0.35 in Rain , Thunderstorm Light Thunderstorms and Rain
4:16 PM 64.0 °F 61.0 °F 90% 29.80 in 2.5 mi ESE 13.8 mph - 0.17 in Rain , Thunderstorm Heavy Thunderstorms and Rain
4:32 PM 64.9 °F 63.0 °F 93% 29.79 in 2.0 mi East 18.4 mph 23.0 mph 0.28 in Rain , Thunderstorm Thunderstorms and Rain
4:41 PM 66.0 °F 63.0 °F 90% 29.79 in 6.0 mi East 16.1 mph - 0.28 in Rain , Thunderstorm Light Thunderstorms and Rain
4:49 PM 68.0 °F 64.4 °F 88% 29.79 in 10.0 mi ESE 19.6 mph 24.2 mph 0.28 in Thunderstorm Scattered Clouds
4:53 PM 68.0 °F 64.0 °F 87% 29.78 in 10.0 mi ESE 19.6 mph 25.3 mph 0.28 in Thunderstorm Scattered Clouds
5:53 PM 72.0 °F 64.0 °F 76% 29.73 in 10.0 mi ESE 15.0 mph - N/A   Clear
6:53 PM 73.0 °F 64.0 °F 73% 29.71 in 10.0 mi ESE 15.0 mph - N/A   Clear
7:53 PM 70.0 °F 64.0 °F 81% 29.73 in 10.0 mi ESE 10.4 mph - N/A   Clear
8:53 PM 69.1 °F 64.0 °F 84% 29.71 in 10.0 mi ESE 13.8 mph - N/A   Clear
9:53 PM 66.9 °F 63.0 °F 87% 29.71 in 10.0 mi ESE 11.5 mph - N/A   Clear
10:53 PM 69.8 °F 64.4 °F 83% 29.72 in 10.0 mi SE 13.8 mph - N/A   Clear
11:53 PM 71.1 °F 64.0 °F 78% 29.72 in 10.0 mi South 9.2 mph - N/A   Clear